#timestamp,LO_Frequency,Hit,StdDev 
1698577215.5,286046996.7,P
1698577235.4,286046998.5,N
1698577255.2,286046998.7,N
1698577275.1,286047000.9,N
1698577276.0,286047000.9,N
1698577295.8,286046998.5,N
1698577315.6,286046998.2,N
1698577335.5,286046997.2,N
1698577355.3,286046998.2,N
1698577375.1,286046998.9,N
1698577395.9,286046998.2,N
1698577415.7,286047001.2,N
1698577435.6,286046998.1,N
1698577455.4,286046998.7,N
1698577475.2,286046998.3,N
1698577495.1,286046999.2,N
1698577496.0,286046999.2,N
1698577515.8,286046999.0,N
1698577535.7,286046999.5,N
1698577555.5,286046998.8,N
1698577575.3,286046999.3,N
1698577595.2,286046998.1,N
1698577615.0,286046998.3,N
1698577615.9,286046998.3,N
1698577635.7,286047000.8,N
1698577655.6,286047011.9,Y
1698577675.4,286047002.5,P
1698577695.3,286046999.9,N
1698577715.1,286047001.5,N
1698577735.8,286047007.2,Y
1698577755.7,286047005.3,P
1698577775.5,286047001.7,N
1698577795.4,286046999.8,N
1698577815.2,286046999.9,N
1698577835.0,286046999.9,N
1698577835.9,286046999.9,N
1698577855.8,286046999.1,N
1698577905.6,286046997.0,E
1698577915.5,286046998.8,N
1698577935.4,286046998.4,P
1698577955.2,286046996.8,P
1698577975.1,286046994.9,Y
1698577976.0,286046994.9,P
1698577995.8,286047001.1,N
1698578015.6,286046999.1,N
1698578035.5,286046997.8,N
1698578055.3,286046995.0,N
1698578075.1,286046994.9,N
1698578095.9,286046993.6,N
1698578115.7,286046994.7,N
1698578135.6,286046994.0,N
1698578155.4,286046997.1,N
1698578175.2,286046997.0,N
1698578195.1,286046996.8,N
1698578196.0,286046996.8,N
1698578215.8,286046997.6,N
1698578235.6,286046996.3,N
1698578255.5,286046995.6,N
1698578275.3,286046995.0,N
1698578295.2,286046997.4,N
1698578315.9,286046995.0,N
1698578335.7,286046994.9,N
1698578355.6,286046996.8,N
1698578375.4,286046995.8,N
1698578395.2,286046995.7,N
1698578415.1,286046995.9,N
1698578416.0,286046995.9,N
1698578435.8,286046996.0,N
1698578455.7,286046996.3,N
1698578475.5,286046994.5,Y
1698578495.3,286046995.6,P
1698578515.2,286046999.0,P
1698578535.0,286046998.6,N
1698578535.9,286046998.6,N
1698578555.7,286047001.2,N
1698578575.6,286046998.3,N
1698578595.4,286046997.0,N
1698578615.3,286046997.2,N
1698578635.1,286046998.8,N
1698578636.0,286046998.8,N
1698578655.8,286046999.6,N
1698578675.7,286046998.5,N
1698578695.5,286046998.5,N
1698578715.3,286047002.8,N
1698578735.2,286047000.2,N
1698578755.0,286046998.1,N
1698578755.9,286046998.1,N
1698578775.8,286046998.5,N
1698578795.6,286047001.5,N
1698578815.4,286047002.1,N
1698578835.3,286047002.8,N
1698578855.1,286047002.1,N
1698578875.8,286047002.6,N
1698578895.7,286047001.5,N
1698578915.5,286047004.2,N
1698578935.4,286047002.0,N
1698578955.2,286047004.3,N
1698578975.0,286047004.3,N
1698578975.9,286047004.3,N
1698578995.8,286047004.1,N
1698579015.6,286047002.3,N
1698579035.4,286047001.4,N
1698579055.3,286047004.4,N
1698579075.1,286047003.8,N
1698579095.9,286047003.7,N
1698579115.7,286047001.4,N
1698579135.5,286047002.3,N
1698579155.4,286047004.0,N
1698579175.2,286047002.1,N
1698579195.0,286047000.5,N
1698579195.9,286047000.5,N
1698579215.8,286047001.2,N
1698579235.6,286047000.6,N
1698579255.5,286047000.3,N
1698579275.3,286047001.9,N
1698579295.1,286047002.5,N
1698579315.9,286046999.9,N
1698579335.7,286047001.0,N
1698579355.5,286047001.8,N
1698579375.4,286047000.4,N
1698579395.2,286046999.8,N
1698579415.1,286047000.6,N
1698579416.0,286047000.6,N
1698579435.8,286046998.9,N
1698579455.6,286046998.6,N
1698579475.5,286047000.7,N
1698579495.3,286046998.7,N
1698579515.1,286047001.2,N
1698579535.9,286047001.2,N
1698579555.7,286046998.5,N
1698579575.6,286047001.1,N
1698579595.4,286047002.3,N
1698579615.2,286047001.0,N
1698579635.1,286047000.5,N
1698579636.0,286047000.5,N
1698579655.8,286046999.0,N
1698579705.7,286046998.2,E
1698579715.6,286046998.6,N
1698579735.4,286047001.2,P
1698579755.3,286046999.7,N
1698579775.1,286047001.1,N
1698579795.8,286046998.3,N
1698579815.7,286046999.9,N
1698579835.5,286047002.4,N
1698579855.4,286047000.1,N
1698579875.2,286047000.4,N
1698579895.0,286047001.1,N
1698579895.9,286047001.1,N
1698579915.8,286046998.1,N
1698579935.6,286046999.5,N
1698579955.4,286047001.2,N
1698579975.3,286047000.3,N
1698579995.1,286046999.9,N
1698580015.9,286047000.2,N
1698580035.7,286047000.6,N
1698580055.5,286047001.2,N
1698580075.4,286047000.9,N
1698580095.2,286046996.7,Y
1698580115.0,286046997.8,P
1698580115.9,286046997.8,N
1698580135.8,286046995.0,P
1698580155.6,286046997.2,N
1698580175.5,286046995.0,N
1698580195.3,286046996.6,N
1698580215.1,286046995.3,N
1698580235.9,286046996.6,N
1698580255.7,286046995.4,N
1698580275.5,286046995.9,N
1698580295.4,286046996.0,N
1698580315.2,286046995.5,Y
1698580335.1,286046999.3,P
1698580336.0,286046999.3,N
1698580355.8,286047001.0,N
1698580375.6,286047001.2,N
1698580395.5,286047000.3,N
1698580415.3,286047001.1,N
1698580435.2,286047000.9,N
1698580455.9,286046998.4,N
1698580475.7,286047001.2,N
1698580495.6,286046999.1,N
1698580515.4,286046996.9,N
1698580535.2,286046999.0,N
1698580555.1,286047001.2,N
1698580556.0,286047001.2,N
1698580575.8,286046999.3,N
1698580595.7,286046999.1,N
1698580615.5,286046998.8,N
1698580635.3,286047001.0,N
1698580655.2,286047000.7,N
1698580675.0,286047002.7,N
1698580675.9,286047002.7,N
1698580695.7,286047000.6,N
1698580715.6,286047002.8,N
1698580735.4,286047000.6,N
1698580755.3,286047000.4,N
1698580775.1,286047000.3,N
1698580776.0,286047000.3,N
1698580795.8,286046998.1,N
